ECMWFNIL_850_spd_072.txt.gz
Wind_Speed
5 7 8 9 9 9 8 9 9 8 9 10 11 11 12 12 13 15 16 17 18 18 18 19 20 21 22 23 25 27 29 30 31 30 28 28 29 29 29 30 31 31
4 3 4 5 6 6 6 7 8 8 8 8 10 11 13 14 15 17 19 20 21 21 21 21 22 23 24 27 29 30 31 32 32 30 28 28 28 27 27 27 27 28
9 7 6 4 4 4 4 6 7 8 8 9 11 12 13 15 16 17 17 19 20 21 22 21 22 22 24 26 27 25 24 25 26 25 25 25 25 24 25 25 25 27
13 11 9 7 6 6 5 5 6 6 6 7 8 9 10 12 14 14 14 16 19 19 19 19 19 20 20 20 20 19 18 18 19 19 20 21 21 22 23 23 23 24
15 14 13 11 9 9 8 8 8 8 7 6 6 7 8 9 11 12 13 14 16 16 16 16 17 18 17 17 18 18 18 18 17 17 18 19 20 21 22 22 22 22
15 15 15 13 12 12 11 11 11 11 9 8 7 7 7 8 9 11 12 13 14 15 14 15 17 18 17 17 17 18 18 18 19 18 18 19 21 22 21 20 21 22
14 14 15 14 13 13 13 13 13 12 11 9 7 6 6 7 8 9 12 14 15 16 15 14 16 18 18 18 17 17 17 18 19 20 19 18 19 20 19 18 19 20
12 13 15 14 14 15 15 14 15 14 12 10 8 7 7 7 7 7 10 12 14 16 16 16 17 18 18 18 18 18 18 18 19 20 20 18 17 18 17 16 18 19
10 13 16 17 16 16 16 15 15 15 14 12 11 10 9 9 9 10 11 11 13 15 17 17 18 19 19 18 18 19 19 18 18 19 20 19 17 16 15 15 17 17
15 16 19 20 18 17 16 16 16 15 15 15 14 12 10 10 11 11 11 12 13 15 17 18 20 21 21 20 19 20 21 19 17 17 18 18 17 15 14 14 14 14
25 24 25 25 23 20 17 16 16 15 15 15 15 14 13 13 12 12 12 13 14 16 18 19 21 21 22 22 22 22 22 20 18 16 16 17 17 15 13 12 13 13
29 28 28 28 28 26 24 22 21 20 19 17 16 16 15 15 15 15 16 16 17 18 19 20 20 21 21 23 24 24 22 21 19 18 16 15 15 15 13 11 12 13
28 28 28 28 27 28 27 27 27 26 25 23 21 20 20 20 19 18 19 19 19 20 21 21 21 21 20 21 22 23 23 22 21 20 19 16 14 14 13 11 10 11
27 26 26 26 25 26 26 27 27 27 27 26 25 25 25 25 24 22 22 20 20 21 22 22 22 23 23 23 22 22 23 23 22 21 21 19 16 14 12 10 10 10
24 23 23 22 22 23 24 26 27 27 27 27 27 27 28 29 28 27 26 24 23 23 22 23 23 25 27 27 26 24 23 23 22 20 20 19 18 16 12 9 8 9
20 20 20 20 20 21 22 24 25 27 28 29 29 28 28 29 30 30 30 29 28 27 26 25 25 26 27 27 27 26 24 22 20 19 18 16 16 16 14 10 9 8
19 20 20 20 19 19 21 22 24 26 28 29 29 28 28 28 29 30 31 31 31 30 30 29 29 29 28 26 26 26 25 22 19 17 16 15 15 15 15 13 11 10
22 24 26 25 22 19 20 21 23 25 28 29 29 28 28 28 28 29 31 32 32 32 32 31 31 31 30 28 26 26 25 24 20 17 15 14 13 13 13 13 13 12
25 28 31 31 29 25 23 23 25 27 28 28 28 28 29 30 30 30 31 31 32 32 32 33 32 32 32 31 29 26 25 24 22 19 16 14 12 12 11 12 13 14
28 30 31 33 32 31 29 28 29 29 29 28 27 28 29 31 32 32 31 31 31 31 32 33 33 34 33 33 32 30 26 24 23 21 19 17 15 13 12 12 12 14
30 31 32 33 33 33 33 33 33 32 31 29 28 28 28 30 32 32 31 30 29 30 31 32 33 34 34 34 34 33 29 25 24 23 22 20 18 17 15 14 14 14
29 30 31 32 33 34 35 35 35 35 34 32 29 29 29 30 32 33 32 30 28 28 30 31 31 33 35 35 35 35 33 29 26 24 24 24 23 21 19 18 17 16
28 29 30 31 32 34 35 36 36 36 36 35 33 32 31 32 33 33 33 31 28 27 27 29 30 31 33 35 36 36 36 34 31 28 26 25 25 24 23 22 20 19
28 29 30 30 32 33 34 35 35 36 36 36 36 35 34 34 35 34 34 33 30 27 24 25 27 29 30 33 35 37 38 38 37 34 31 29 27 26 25 24 24 23
27 28 29 29 30 31 32 32 33 34 35 36 37 36 35 35 36 37 37 36 33 28 23 22 24 26 28 31 33 35 37 38 38 38 36 34 31 29 27 25 25 26
27 27 28 28 28 29 30 31 32 33 34 35 36 36 36 36 37 38 39 38 36 32 25 20 22 24 26 28 31 33 34 36 37 39 38 36 34 32 31 29 27 28

ECMWFNIL_850_spd_075.txt.gz
Wind_Speed
6 8 9 10 11 10 10 9 9 8 7 8 8 8 9 10 13 15 16 17 19 20 22 23 24 25 25 25 25 26 27 29 30 30 29 28 28 28 29 30 31 31
2 3 4 4 5 5 6 7 7 7 7 9 9 10 11 11 13 16 16 16 18 19 21 22 23 23 23 22 22 24 25 26 25 23 23 24 24 25 26 27 27 28
4 3 3 3 4 4 5 5 5 5 5 7 8 9 10 10 12 15 16 16 17 17 19 21 21 20 19 19 19 21 22 22 21 21 21 22 22 24 25 26 26 26
7 6 5 5 5 5 5 5 5 4 4 5 6 8 9 10 12 14 15 16 17 18 19 20 20 19 18 19 19 20 20 20 21 21 22 22 22 23 25 25 26 27
10 8 7 5 5 5 5 5 6 6 5 5 6 7 9 10 12 14 16 17 19 20 21 21 21 21 20 21 21 21 21 21 21 22 22 22 22 23 24 24 25 26
11 9 7 6 5 6 6 6 7 7 7 7 7 8 9 10 12 14 16 18 19 21 22 22 23 23 23 23 23 23 23 21 22 22 23 24 24 23 23 23 24 25
11 8 6 5 6 7 8 8 8 9 9 9 9 10 10 11 12 14 15 18 20 22 23 24 25 25 25 25 24 24 23 22 23 24 25 25 25 24 23 23 24 23
10 7 5 4 5 7 8 8 8 9 9 9 10 11 11 12 12 13 15 17 19 21 22 23 24 24 25 25 25 24 23 23 23 24 26 27 27 25 23 23 25 23
12 10 7 5 6 8 9 9 9 9 9 9 10 11 12 12 13 13 14 15 17 19 20 21 22 23 24 25 25 25 24 23 23 24 24 25 25 24 23 23 25 24
16 16 14 13 13 13 13 13 13 13 12 12 12 12 12 12 13 13 13 14 15 17 19 20 22 22 23 23 24 24 24 23 23 22 22 22 22 22 22 23 24 23
18 18 17 17 16 16 16 17 17 17 16 16 15 15 15 14 14 13 14 15 16 18 20 21 22 24 24 23 23 23 23 23 22 21 21 20 20 20 21 21 23 23
17 16 16 16 16 16 17 17 18 17 17 17 18 18 18 18 17 17 17 17 18 19 20 21 22 23 24 24 24 23 23 23 22 21 21 20 19 20 20 20 21 23
16 15 14 15 16 17 18 18 18 17 17 18 18 18 19 19 19 19 19 19 19 20 20 22 22 23 24 25 25 26 25 25 24 23 22 21 20 20 19 19 19 21
14 13 13 14 16 18 19 20 20 19 19 19 20 20 21 21 21 20 20 20 20 20 21 22 23 24 26 27 28 27 27 26 26 26 24 23 22 21 20 19 18 20
11 11 12 13 16 19 21 22 22 22 22 22 23 23 23 23 22 22 22 22 22 22 22 23 24 25 28 29 29 28 27 27 27 27 27 25 23 22 21 19 19 19
11 12 13 15 19 21 22 23 24 24 24 25 25 25 25 25 25 25 25 25 25 25 24 24 25 26 27 28 28 28 27 26 26 26 27 27 25 24 23 21 20 19
15 16 17 19 21 22 22 23 23 24 25 25 25 26 26 26 26 26 27 27 28 27 26 25 25 26 27 27 28 28 27 26 25 25 25 26 26 25 24 24 22 21
22 22 23 23 23 23 22 22 23 24 24 24 24 25 25 25 26 27 27 27 27 27 27 26 25 26 27 27 28 29 29 27 26 25 25 25 25 25 24 25 24 24
26 26 26 26 25 25 24 24 24 24 24 24 24 24 25 25 26 26 26 26 26 26 26 25 25 25 26 27 28 29 30 29 28 26 25 24 24 24 24 24 25 25
26 27 28 27 27 27 26 26 26 25 24 24 25 26 27 27 27 26 26 25 25 25 25 25 25 25 26 27 27 29 30 31 31 29 27 25 25 24 24 24 24 25
26 27 28 28 28 28 29 30 29 27 26 26 27 28 29 28 28 27 26 25 24 23 23 24 25 25 26 27 27 28 30 31 32 32 31 29 27 25 25 24 24 24
26 26 27 28 28 29 31 31 30 29 28 27 28 28 29 29 29 28 27 26 24 23 22 23 24 24 26 27 27 28 29 31 32 33 34 33 32 30 28 26 25 25
24 25 26 27 28 29 30 31 30 29 28 28 28 29 30 31 30 29 28 27 26 24 22 22 23 23 25 27 28 28 30 32 34 35 36 37 36 34 32 30 28 27
22 23 25 26 27 28 29 30 30 29 28 28 29 30 31 31 31 30 29 29 27 25 22 21 21 22 23 25 27 28 30 33 35 37 38 39 39 37 36 34 32 30
20 21 23 24 25 27 27 28 28 28 28 28 29 30 32 32 31 30 30 30 29 26 23 21 20 20 21 23 26 27 30 32 35 38 39 41 41 40 39 37 35 33
18 19 21 22 23 25 26 27 27 27 26 27 28 30 31 32 32 32 32 32 32 29 25 21 20 19 19 21 24 26 29 31 34 38 40 41 42 41 40 40 38 36

ECMWFNIL_850_spd_078.txt.gz
Wind_Speed
10 10 9 9 10 10 11 11 12 13 13 13 13 14 15 17 18 19 19 20 21 22 23 24 25 27 28 29 27 25 24 23 23 24 24 25 25 24 23 22 20 21
8 7 7 7 8 9 10 11 11 11 11 11 11 12 13 15 17 19 19 20 21 22 24 25 27 28 29 30 29 27 25 24 24 25 26 25 25 25 24 24 23 22
7 6 6 7 8 9 10 11 11 11 11 10 10 10 11 13 15 17 18 20 21 23 24 26 27 27 28 28 28 27 26 26 26 26 26 25 25 25 25 25 25 25
7 6 6 7 8 9 9 9 9 10 10 10 10 11 12 13 14 15 17 19 20 22 23 24 25 25 26 26 26 25 25 25 26 26 25 23 23 25 25 26 27 26
6 6 7 7 8 9 8 7 8 10 11 11 12 12 13 13 13 14 16 18 19 21 22 23 24 24 25 25 25 25 24 24 24 24 24 24 23 24 26 26 27 27
6 6 7 8 9 9 9 9 11 11 12 13 13 14 14 14 14 15 16 18 19 21 22 23 24 25 25 26 25 25 25 24 24 23 24 24 24 24 25 26 27 27
6 6 8 9 10 10 11 12 12 13 14 14 14 14 15 15 15 16 17 19 20 21 23 24 25 26 26 26 26 26 25 25 25 24 24 24 24 24 24 25 26 27
8 8 10 11 11 12 13 14 14 15 15 15 15 15 16 16 16 17 18 19 20 21 22 24 25 26 27 28 28 27 27 26 25 25 25 24 24 24 24 24 24 25
12 12 12 12 13 13 14 15 15 15 15 16 16 17 17 17 17 17 18 19 20 21 23 24 25 26 27 28 28 29 28 28 27 26 25 25 25 25 24 23 23 23
13 13 12 13 13 14 14 15 15 15 16 16 17 17 17 17 18 18 19 20 21 23 24 25 26 27 27 28 28 29 29 30 30 29 28 27 27 26 26 24 24 23
13 13 13 13 14 14 15 15 16 16 17 17 17 17 18 19 19 20 21 22 23 25 25 26 27 28 28 29 29 30 30 30 30 31 31 30 29 28 27 26 25 24
15 15 15 16 16 16 17 17 17 18 18 18 19 20 20 21 22 22 23 24 25 25 26 26 27 28 29 30 31 31 31 31 30 30 31 31 31 30 29 28 26 25
17 18 18 18 18 18 18 18 18 18 19 20 20 21 21 22 23 23 24 25 25 25 26 26 27 28 29 30 31 32 32 32 32 31 31 31 31 31 30 29 28 26
18 18 19 19 19 19 19 18 19 19 20 21 21 22 22 22 23 23 24 24 25 25 26 26 27 29 30 31 31 32 32 33 33 32 32 31 31 31 31 30 28 26
17 18 19 19 19 19 19 19 19 20 20 20 21 22 22 22 22 22 23 23 24 24 25 26 27 28 29 30 31 32 32 33 33 33 33 33 32 31 31 31 30 28
17 18 19 19 19 19 19 19 20 20 20 20 21 21 21 21 21 21 22 23 23 24 25 26 26 27 27 27 28 30 32 33 34 34 35 35 34 33 33 32 32 31
19 19 19 19 20 20 19 19 19 20 20 20 21 21 21 21 21 21 22 23 24 25 25 26 26 26 26 26 27 28 30 32 33 34 35 36 37 36 35 34 33 32
20 20 20 20 20 20 19 19 19 20 20 21 22 22 22 22 22 22 22 23 23 24 24 25 25 26 26 27 27 27 28 30 32 33 35 36 37 38 37 37 36 34
21 21 21 21 21 20 19 19 20 22 23 24 24 23 23 22 22 22 22 22 23 23 24 24 25 25 26 27 28 28 28 29 32 33 34 35 36 37 37 38 38 37
21 21 22 22 21 21 20 21 23 24 24 25 25 24 24 24 23 23 23 23 23 24 24 25 25 25 26 27 28 29 29 30 32 34 34 34 35 36 36 37 38 38
22 22 22 22 22 21 22 22 23 24 25 25 25 25 25 25 24 24 24 24 23 23 24 24 24 24 25 26 28 29 30 31 33 35 35 35 36 36 35 36 37 38
23 22 22 22 21 21 22 22 22 23 24 25 25 25 25 25 25 25 25 24 24 23 24 24 24 24 25 26 28 29 30 32 34 37 38 38 37 36 35 35 37 38
22 23 23 22 21 21 21 21 22 23 24 24 25 25 26 26 27 27 27 26 25 25 25 25 24 24 24 26 28 29 30 33 37 39 40 39 37 36 35 35 36 37
21 22 22 22 20 20 20 20 21 22 23 24 25 26 27 27 27 28 28 28 28 27 26 26 25 24 24 26 28 29 32 35 39 41 42 42 39 37 36 36 36 36
19 20 21 21 20 19 19 19 20 21 22 23 24 25 26 27 28 28 29 30 30 29 28 27 26 25 24 25 27 30 32 35 38 41 44 44 41 38 37 36 36 36
17 18 19 19 19 19 18 18 19 19 20 21 23 24 25 26 28 28 29 30 30 30 30 29 28 26 24 25 27 29 31 34 37 41 44 43 40 38 38 37 37 37

ECMWFNIL_850_spd_084.txt.gz
Wind_Speed
1 2 5 7 8 9 8 7 7 8 8 9 9 10 11 13 14 15 16 16 17 17 17 17 17 17 17 17 17 17 17 17 16 16 15 15 14 14 14 14 13 14
3 5 8 9 10 11 11 10 10 9 10 10 10 11 13 14 15 15 16 16 17 17 17 18 18 18 19 19 19 19 20 20 20 19 18 17 16 16 15 16 16 16
7 9 10 11 11 11 11 10 10 10 10 11 12 13 14 15 16 16 16 17 17 17 18 19 19 20 20 20 20 21 21 22 22 22 21 19 19 17 15 15 16 16
10 10 10 10 11 11 10 10 11 11 11 13 15 15 16 16 17 17 17 18 18 19 19 20 20 21 21 21 22 22 22 23 22 22 23 23 23 21 18 17 16 16
10 9 9 10 11 12 12 13 14 14 15 16 16 16 17 17 18 18 19 19 19 20 20 21 21 21 22 23 23 23 24 24 24 24 24 25 25 25 24 23 21 19
11 11 12 12 13 14 15 17 17 17 17 17 17 18 18 18 18 19 19 20 20 21 21 22 23 23 23 24 24 25 25 25 26 27 26 25 25 26 26 25 24 21
14 14 15 15 16 16 17 18 18 18 18 18 18 18 19 18 18 19 20 20 21 22 22 23 24 24 25 26 26 27 27 28 28 28 27 27 27 26 26 25 24 21
15 15 16 16 17 17 18 18 18 18 18 18 18 18 18 18 18 19 20 20 21 22 22 23 24 25 26 27 28 28 29 29 29 29 29 28 28 27 26 25 25 22
15 16 16 17 17 18 18 18 18 18 18 18 18 18 18 18 18 19 19 20 21 21 22 23 24 25 26 27 28 29 29 30 30 30 30 29 27 26 25 24 23 22
16 17 17 18 18 18 18 18 18 17 17 17 18 18 18 18 18 18 19 19 20 21 22 23 24 25 26 27 28 29 30 31 31 31 31 29 27 25 24 22 21 21
18 18 18 18 18 18 17 17 17 17 17 17 17 17 18 18 18 18 19 20 21 21 22 23 24 25 26 27 28 30 31 31 31 31 30 27 25 24 23 21 20 20
19 18 18 18 18 17 17 16 16 16 16 17 17 17 18 18 18 19 20 20 20 21 22 23 24 25 26 27 29 29 30 30 30 29 27 25 23 21 21 20 20 20
19 18 18 17 17 17 16 16 16 16 16 16 17 17 17 18 18 19 19 19 20 20 21 22 24 25 26 27 28 28 28 27 27 26 24 22 21 19 19 19 19 19
18 18 18 17 17 17 17 17 17 17 17 17 17 17 17 18 18 18 18 18 19 19 19 21 24 25 26 27 27 27 26 24 23 24 23 21 19 18 17 18 19 18
18 18 18 17 17 17 17 17 17 17 18 17 17 17 18 18 17 17 18 18 18 18 17 20 24 25 26 27 27 26 25 22 21 22 21 20 19 19 17 18 19 18
19 18 18 18 18 18 18 18 18 19 18 18 18 18 18 18 17 17 18 18 18 17 16 18 23 25 25 25 25 25 24 23 21 20 20 19 20 20 18 18 19 17
19 19 19 19 19 19 19 19 19 20 19 19 19 19 19 18 18 18 19 19 19 18 17 18 23 26 25 25 25 24 24 23 21 20 20 19 20 19 18 19 18 18
19 19 19 20 20 20 20 20 20 20 20 20 20 20 19 19 19 20 21 21 20 19 20 22 24 26 25 25 26 24 23 22 20 19 19 19 19 19 18 19 18 19
19 19 20 20 20 21 21 21 20 21 21 20 21 21 20 20 21 21 22 23 21 20 22 25 26 26 26 27 26 24 22 22 19 18 19 18 19 19 18 19 19 20
19 20 20 20 21 21 21 21 21 21 21 21 21 21 21 22 22 22 23 24 22 20 22 26 27 27 27 28 27 24 23 22 20 19 19 19 19 20 19 19 19 21
19 20 20 20 21 21 21 21 21 21 21 21 21 22 22 22 23 23 23 24 24 22 22 25 27 27 28 29 29 26 23 21 19 18 19 19 19 20 20 20 20 21
19 20 20 20 20 20 20 20 20 21 21 22 22 22 22 23 23 23 23 24 25 24 23 24 26 28 29 30 31 28 23 20 19 18 19 19 20 20 20 20 20 21
19 19 20 19 19 19 20 20 20 20 21 21 21 22 22 23 23 23 23 24 24 24 23 22 25 28 29 30 32 30 24 20 20 19 18 20 20 20 20 20 21 22
18 18 18 18 18 18 19 19 19 19 20 20 21 21 22 22 22 22 23 23 23 24 23 22 23 26 28 29 31 30 25 20 20 20 18 19 20 20 20 21 22 23
18 18 17 17 18 18 18 18 18 18 19 19 20 20 20 21 21 21 22 23 23 23 24 23 23 25 27 28 29 30 27 20 19 20 19 18 20 20 20 21 21 22
18 18 17 17 17 17 17 17 17 16 17 18 18 18 18 19 19 20 21 22 22 23 23 24 24 24 25 26 26 27 27 23 20 21 19 17 19 21 20 21 21 22

ECMWFNIL_850_spd_087.txt.gz
Wind_Speed
5 5 5 6 7 7 7 7 6 6 7 6 6 8 10 11 11 11 12 12 12 12 12 13 13 13 13 14 15 15 16 16 16 17 17 18 16 16 16 14 14 13
6 6 6 6 7 7 7 7 7 7 7 7 8 11 12 12 12 12 13 14 13 14 15 15 15 16 16 17 17 17 17 17 17 17 16 17 17 15 15 14 14 14
8 8 8 8 8 9 8 8 8 7 8 10 12 13 14 13 13 13 14 15 16 16 16 16 17 18 18 19 19 19 19 19 18 17 14 14 16 16 15 15 14 14
8 8 8 8 9 9 8 8 8 9 11 14 14 14 14 14 14 14 15 16 17 18 18 18 18 19 20 20 20 20 20 20 20 17 14 14 16 17 16 15 14 14
9 9 9 9 10 9 9 10 11 13 15 15 15 14 14 14 14 14 15 16 17 18 18 18 19 20 20 20 20 21 21 21 20 18 16 15 16 16 16 16 15 14
10 10 10 10 11 12 13 14 14 15 16 15 15 14 14 14 14 13 15 16 16 17 18 19 19 20 20 20 21 21 21 21 20 19 16 15 15 15 16 16 15 14
11 12 12 12 14 15 16 17 16 16 15 15 15 14 13 14 14 14 15 15 16 16 18 19 19 20 20 21 21 21 21 21 21 19 17 16 15 14 15 15 15 14
13 15 16 16 18 18 17 17 17 17 16 15 15 14 13 13 13 14 14 14 15 17 18 18 19 20 20 21 21 20 20 20 21 20 18 16 16 15 14 14 14 14
15 17 18 17 18 17 17 18 17 16 16 15 14 14 14 14 13 13 14 13 15 16 17 18 18 19 20 20 20 19 18 18 19 18 17 15 14 14 15 15 15 15
17 18 18 18 18 17 17 18 17 16 15 14 14 13 13 14 13 14 14 13 14 16 17 17 18 19 19 19 19 19 16 16 17 15 14 14 14 14 15 15 15 16
18 18 18 18 18 17 17 17 17 16 15 14 13 13 13 13 13 14 13 13 14 16 17 17 18 18 19 19 19 19 17 15 16 15 13 13 14 14 14 15 15 16
19 18 18 17 17 16 16 16 16 15 14 14 13 13 13 13 14 14 12 12 14 16 17 17 18 18 18 19 19 18 17 16 16 16 13 13 14 13 14 15 15 16
19 18 17 16 16 16 15 15 15 14 14 14 13 13 14 13 14 14 13 14 15 17 18 18 18 19 19 20 19 18 18 16 15 14 13 14 14 13 14 15 15 16
18 17 16 16 15 16 15 15 15 14 13 13 13 14 14 14 14 14 14 15 16 18 19 19 19 20 20 20 19 18 17 15 14 13 13 13 14 13 14 15 16 16
18 17 17 16 16 15 15 15 15 14 14 14 14 14 15 14 13 12 12 14 17 18 19 19 20 21 21 21 19 18 16 13 13 13 13 13 13 14 14 15 16 16
17 17 17 17 16 16 15 15 15 15 15 15 15 15 15 14 14 13 13 14 17 19 20 20 21 21 21 19 18 17 16 14 12 12 12 12 14 14 14 16 16 17
16 16 16 16 16 16 16 16 16 16 15 15 15 16 16 15 15 15 15 15 17 20 21 21 21 21 20 19 17 16 16 15 12 12 12 12 14 14 15 16 16 17
16 15 15 16 16 16 17 16 16 16 16 16 16 17 17 16 16 15 14 13 15 19 21 21 21 21 20 19 17 16 17 15 12 12 11 12 14 14 15 16 16 17
16 15 16 16 16 16 16 16 16 17 17 17 17 18 17 18 17 16 14 11 11 16 21 21 21 22 22 19 18 17 17 15 11 11 12 12 13 14 15 16 17 18
16 16 16 16 16 16 16 16 17 17 17 16 16 17 17 17 18 17 16 13 9 12 19 22 21 23 23 20 18 18 18 16 12 11 12 13 13 14 15 16 17 18
16 17 17 16 16 16 16 17 17 16 15 15 14 15 15 15 17 17 16 14 9 8 15 21 22 22 23 23 20 18 19 17 13 11 12 13 13 14 15 15 17 18
17 17 17 16 16 16 16 17 17 15 14 14 14 14 15 15 15 16 16 15 13 9 11 19 22 22 23 24 23 20 19 16 14 12 12 13 14 15 15 16 18 20
17 17 16 16 15 15 16 16 16 14 13 12 12 12 12 13 13 14 15 17 17 14 11 14 21 23 22 23 24 23 20 17 14 14 13 13 15 15 15 17 21 23
16 16 16 15 15 15 16 15 15 14 13 12 11 11 10 10 10 10 12 15 18 18 15 13 19 23 23 23 23 23 22 19 16 15 14 13 15 16 15 17 20 23
16 16 15 15 15 15 15 14 13 12 11 10 9 9 9 8 8 8 9 11 14 18 19 17 19 22 23 23 23 23 23 20 17 17 16 13 14 16 16 16 18 21
16 16 15 15 15 16 14 13 13 12 11 9 8 8 8 7 7 7 8 9 10 12 16 19 20 22 23 23 23 23 23 22 19 19 18 13 13 16 17 17 18 20